Other Surface Observations
Issued by NWS Charleston, SC

Home | Current Version | Previous Version | Text Only | Print | Product List | Glossary On
Versions: 1 2 3 4 5 6 7 8 9 10 11 12 13 14 15 16 17 18 19 20 21 22 23 24 25 26 27 28 29 30 31 32 33 34 35 36 37 38 39 40 41 42 43 44 45 46 47 48 49 50
000
SXUS52 KCHS 170225
OSOCHS

MARINE OBSERVATIONS
NATIONAL WEATHER SERVICE CHARLESTON SC
1000 PM EDT TUE SEP 16 2014

...DOWNTOWN CHARLESTON AND HARBOR...

CITY           SKY/WX    TMP DP  RH WIND       PRES   REMARKS
WATERFRONT PRK   N/A     77 N/A N/A NW6         N/A
FORT JOHNSON   NOT AVBL

...LAKE MOULTRIE...

CITY           SKY/WX    TMP DP  RH WIND       PRES   REMARKS
PINOPOLIS        N/A     75  70  83 CALM      29.88F

...LAKE AND SUPPLEMENTAL COASTAL OBSERVATIONS...

STATION/POSITION TIME  TEMP    WIND        PRES    WAVE   SWELL
                       AIR SEA DIR/SP/G            HT/PER HT/PER/DIR
                 (UTC) (F)     (DEG/KT/KT) (MB)    (FT/S) (FT/S/D)
FORT PULASKI     0200   76     320/  9/ 12 1014.7F
SAPELO ISLAND    0200   79     240/  6     1015.0S
UPR LAKE MARION  NOT AVBL
WINYAH BAY       0200   73     250/  2     1014.0S
LAKE MURRAY      0200   81     140/ 10/ 12 1013.5S
ACE BASIN NERRS  0200   73        CALM     1015.0S


...C-MAN AND BUOY OBSERVATIONS...

STATION/POSITION TIME  TEMP    WIND        PRES    WAVE   SWELL
                       AIR SEA DIR/SP/G            HT/PER HT/PER/DIR
                 (UTC) (F)     (DEG/KT/KT) (MB)    (FT/S) (FT/S/D)
BUOY 41004       0200   79 83   20/  4/  6 1014.3F   1/12   2/12
BUOY 41008       0200   81 85  230/  8/ 10 1014.2S   1/ 8   2/ 80/ 8
FOLLY BEACH CMAN 0200   74     270/  3/  4 1014.4F
CAPERS NS BUOY   0100   75     360/  4/  6   N/A
FRIPP NS BUOY    NOT AVBL
5E ST. MARYS GA  0200      84                N/A     2/13   2/100/13
FRYING PAN BUOY  NOT AVBL
BUOY 41025       0200   77     280/  2/  6 1014.6R   2/12   2/ 70/12
CAPE LOOKOUT NC  0200   78     200/  7/  8 1014.3F
BUOY 41002       0051   78 82  140/ 10/ 12 1015.0S   4/14   3/ 90/14
BUOY 41010       0200   81 85  230/  2/  4 1015.7R   3/ 7   2/ 40/ 7
BUOY 41012       NOT AVBL
ST AUGUSTINE FL  0200   75     240/  5/  7 1015.0F


$$



USA.gov is the U.S. government's official web portal to all federal, state and local government web resources and services.